THORAD DELTA 1 DEB, 8165

Orbit data source: Space-Track

THORAD DELTA 1 DEB, 8165 is space debris in SSO originally from a launch on Fri, 15 Nov 1974 UTC launched from the Air Force Western Test Range (AFWTR). Debris objects in space refer to the collection of defunct objects orbiting the Earth. Examples of debris include non-operational satellites, rocket bodies, and fragments generated from explosions, collisions, or faulty payload assembly.

Loading next visibility...
Identifier
8165, 1974-089AF
Orbit
SSO
Country
Flag of USUS
Related business
Manufacturer
Unknown
Mission
Spacecraft
Bus & Motor
Unknown
Mass
Unknown
Launch date (UTC)
1974-11-15 (51 years ago)
Launch vehicle
Unknown
Launch site
Air Force Western Test Range (AFWTR)
Object type
Payload
Rocket body
Debris
Shape & HBR
Unknown
Radar Cross Section
Small (<0.1 m²)

Expand to show TLE details & history
Last TLE update: 15 hours ago

TLE from 15 hours ago
0 THORAD DELTA 1 DEB
1 08165U 74089AF  25260.29976419 -.00000019  00000-0  16182-3 0  9992
2 08165 101.6742 204.9922 0018988  44.1962 113.9422 12.50172878318668
Epoch: 2025-09-17T07:11Z
TLE epoch observation values (Epoch: 2025-09-17T07:11:39.626Z)
Latitude
21.20377°
Longitude
-74.82553°
Altitude
1,472.139 km
Speed
7.126 km/s
True Right ascension
01h 58m 16s
True Declination
21° 05' 55"
Sunlit
Object was in full shadow at epoch
Visualization orbit readout
Latitude
Unknown
Longitude
Unknown
Altitude
Unknown
Speed
Unknown
Apparent Right ascension
Unknown
Apparent Declination
Unknown
Sunlit
N/A
Visualization observer readout
Local Sidereal Time
15:02:36
Azimuth
Unknown
Elevation
Unknown
Doppler factor
Unknown
Orbital elements
Apogee altitude
1,476.2 km
Perigee altitude
1,446.429 km
Semi-major axis
7,839.451 km
Eccentricity
0.0019
Inclination
101.6742°
RAAN
204.9922°
Arg. of periapsis
44.1962°
True anomaly
114.14087°
Mean anomaly
113.9422°
Eccentric anomaly
114.04156°
Mean motion
3.1269 °/min
Orbital period
115.13 mins
BSTAR
0.00016182
Loading maneuver chart data...
Computing Atmospheric mass density...
Loading historical data...
Loading historical data...
Loading historical data...
Loading historical data...
Loading historical data...
Loading historical data...
Loading historical data...

Documentation

Showing up to 5 results
|